User: anonymous   Login
Location: Chacón
(10.5789°N, 66.9317°W)
Time: 01:21:54
(UTC+00:00)
Language:

GENESIS II - Orbit

View from above orbital plane
View from above orbital plane
View from above satellite
View from above satellite

Ground track
Ground track

The orbit data is extracted from the following two-line orbital elements,

1 31789U 07028A   24194.51437023  .00019339  00000-0  51649-3 0  9993
2 31789  64.4892 126.2825 0019506 226.0683 133.8841 15.37989150941311
Epoch (UTC): 12 July 2024 12:20:41
Eccentricity: 0.0019506
inclination: 64.4892°
perigee height: 439 km
apogee height: 465 km
right ascension of ascending node: 126.2825°
argument of perigee: 226.0683°
revolutions per day: 15.37989150
mean anomaly at epoch: 133.8841°
orbit number at epoch: 94131

The dashed part of the orbit path shows where the satellite is in the earth's shadow,  

DLR